Tracking 25620 objects as of 18-May-2022
HD Live streaming from Space Station
objects crossing your sky now

STARLINK-1069

Track STARLINK-1069 now!
10-day predictions
STARLINK-1069 is classified as:


NORAD ID: 44955
Int'l Code: 2020-001AT
Perigee: 553.0 km
Apogee: 555.6 km
Inclination: 53.1 °
Period: 95.6 minutes
Semi major axis: 6925 km
RCS: Unknown
Launch date: January 7, 2020
Source: United States (US)
Launch site: AIR FORCE EASTERN TEST RANGE (AFETR)
aabbcc
Your satellite tracking list
Your tracking list is empty




NASA's NSSDC Master Catalog

Two Line Element Set (TLE):
1 44955U 20001AT  22138.21861978  .00001654  00000-0  12987-3 0  9994
2 44955  53.0544  73.1821 0001856  37.0085 323.1031 15.06408486130622
Source of the keplerian elements: AFSPC